Terminal Aerodrome Forecast
Issued by NWS Cleveland, OH

Home | Current Version | Previous Version | Graphics & Text | Print | Product List | Glossary On
Versions: 1 2 3 4 5 6 7 8 9 10 11 12 13 14
000
FTUS41 KCLE 281100
TAFMFD
TAF
KMFD 281135Z 2812/2912 20014G22KT P6SM SCT050 OVC120
     FM281700 22020G32KT 5SM -SHRA VCTS OVC035CB
     FM282000 25015G25KT P6SM -SHRA OVC025
     FM290000 24010KT P6SM BKN035=

USA.gov is the U.S. government's official web portal to all federal, state and local government web resources and services.